Precipitable_Water
0.93 0.93 0.93 0.93 0.93 0.91 0.91 0.91 0.93 0.93 0.93 0.93 0.93 0.93 0.93 0.95 0.95 0.95 0.97 0.97 0.97 0.99 0.99 1.01 1.03 1.03 1.05 1.07 1.05 1.05 1.03 1.03 1.03 1.03 1.01 1.01 1.01 1.01 1.01 1.01 1.01 0.99 0.99 0.99 0.97 0.97 0.95 0.91 0.87 0.85 0.85 0.81 0.77 0.71 0.67 0.65 0.63 0.61 0.59 0.59 0.59 0.59 0.58 0.58 0.56 0.54 0.54 0.52 0.52
0.91 0.91 0.93 0.93 0.93 0.93 0.91 0.91 0.93 0.93 0.93 0.93 0.93 0.93 0.95 0.95 0.95 0.95 0.97 0.97 0.99 0.99 1.01 1.03 1.05 1.05 1.05 1.05 1.05 1.05 1.05 1.03 1.03 1.03 1.03 1.03 1.03 1.03 1.03 1.01 1.01 0.99 0.99 0.99 0.99 0.99 0.97 0.97 0.95 0.93 0.89 0.87 0.83 0.79 0.75 0.71 0.67 0.65 0.63 0.61 0.61 0.61 0.59 0.59 0.58 0.56 0.54 0.54 0.54
0.89 0.91 0.91 0.91 0.91 0.91 0.91 0.89 0.91 0.91 0.93 0.93 0.95 0.95 0.95 0.95 0.97 0.97 0.97 0.99 0.99 1.01 1.03 1.03 1.05 1.05 1.05 1.05 1.05 1.05 1.05 1.05 1.05 1.03 1.03 1.03 1.03 1.03 1.01 1.01 1.01 1.01 1.01 0.99 0.99 0.99 0.99 0.99 0.97 0.95 0.93 0.91 0.89 0.85 0.81 0.77 0.73 0.71 0.67 0.65 0.65 0.65 0.63 0.61 0.59 0.58 0.56 0.54 0.54
0.89 0.89 0.89 0.89 0.89 0.89 0.89 0.89 0.89 0.91 0.91 0.93 0.95 0.95 0.97 0.97 0.97 0.99 0.99 1.01 1.01 1.01 1.03 1.03 1.05 1.05 1.05 1.05 1.05 1.05 1.05 1.05 1.05 1.05 1.03 1.03 1.03 1.03 1.01 1.01 1.01 1.01 1.01 1.01 1.01 0.99 0.99 0.99 0.99 0.97 0.95 0.93 0.91 0.89 0.87 0.83 0.79 0.75 0.73 0.73 0.71 0.67 0.65 0.63 0.61 0.59 0.58 0.56 0.56
0.87 0.87 0.89 0.89 0.89 0.89 0.89 0.89 0.89 0.91 0.93 0.95 0.95 0.95 0.97 0.97 0.99 0.99 1.01 1.01 1.01 1.01 1.01 1.05 1.05 1.05 1.07 1.07 1.07 1.05 1.05 1.05 1.05 1.05 1.03 1.03 1.03 1.01 1.01 1.01 1.01 1.01 1.01 1.01 1.01 0.99 0.99 0.99 0.97 0.97 0.95 0.93 0.93 0.91 0.89 0.87 0.81 0.79 0.75 0.75 0.73 0.71 0.67 0.65 0.63 0.61 0.59 0.58 0.56
0.83 0.85 0.87 0.89 0.89 0.89 0.89 0.91 0.91 0.93 0.95 0.95 0.95 0.95 0.95 0.97 0.99 0.99 0.99 0.99 0.99 1.01 1.03 1.05 1.05 1.07 1.07 1.07 1.07 1.05 1.05 1.03 1.03 1.03 1.03 1.03 1.01 1.01 1.01 1.01 0.99 0.99 0.99 1.01 1.01 1.01 0.99 0.99 0.97 0.97 0.95 0.93 0.93 0.93 0.91 0.91 0.87 0.83 0.77 0.77 0.73 0.71 0.69 0.67 0.63 0.61 0.59 0.58 0.56
0.81 0.83 0.85 0.89 0.89 0.89 0.89 0.91 0.91 0.93 0.95 0.95 0.95 0.95 0.95 0.95 0.97 0.97 0.97 0.97 0.99 1.01 1.03 1.05 1.05 1.07 1.05 1.05 1.05 1.03 1.03 1.03 1.03 1.03 1.03 1.01 1.01 1.01 0.99 0.99 0.99 0.99 0.99 0.99 1.01 1.01 1.03 1.01 0.99 0.97 0.95 0.91 0.91 0.91 0.91 0.91 0.89 0.87 0.83 0.79 0.75 0.73 0.71 0.67 0.65 0.63 0.59 0.58 0.58
0.81 0.83 0.85 0.87 0.87 0.89 0.89 0.91 0.93 0.93 0.95 0.95 0.95 0.93 0.95 0.95 0.95 0.97 0.97 0.99 1.01 1.03 1.05 1.05 1.05 1.05 1.05 1.03 1.03 1.03 1.01 1.01 1.01 1.01 1.01 1.01 1.01 0.99 0.99 0.99 0.99 0.99 1.01 1.01 1.03 1.03 1.03 1.03 1.01 0.99 0.97 0.95 0.91 0.89 0.89 0.89 0.87 0.87 0.85 0.81 0.77 0.75 0.71 0.69 0.67 0.65 0.63 0.59 0.58
0.77 0.79 0.83 0.87 0.89 0.89 0.91 0.91 0.93 0.93 0.93 0.93 0.93 0.95 0.95 0.97 0.97 0.99 1.01 1.01 1.03 1.03 1.05 1.03 1.03 1.03 1.03 1.01 1.01 1.01 1.01 0.99 0.99 0.99 0.99 0.99 0.99 0.97 0.97 0.99 1.01 1.01 1.03 1.05 1.05 1.05 1.03 1.03 1.01 0.99 0.99 0.97 0.93 0.91 0.89 0.89 0.87 0.87 0.85 0.85 0.79 0.75 0.73 0.69 0.67 0.65 0.63 0.61 0.58
0.75 0.77 0.81 0.85 0.87 0.89 0.91 0.93 0.93 0.93 0.93 0.95 0.95 0.97 0.97 0.99 0.99 1.01 1.01 1.01 1.01 1.01 1.01 1.01 1.01 1.01 1.01 0.99 0.99 0.99 0.99 0.99 0.99 0.97 0.97 0.97 0.97 0.99 0.99 1.03 1.03 1.03 1.05 1.05 1.03 1.01 1.01 0.99 0.99 0.99 0.99 0.97 0.97 0.95 0.93 0.91 0.89 0.87 0.85 0.85 0.83 0.77 0.73 0.71 0.67 0.65 0.63 0.61 0.59
0.73 0.77 0.81 0.85 0.87 0.89 0.91 0.91 0.91 0.93 0.93 0.95 0.95 0.95 0.97 0.97 0.97 0.99 0.99 1.01 0.99 0.99 0.99 0.99 0.99 0.99 0.99 0.99 0.99 0.97 0.97 0.97 0.97 0.97 0.99 0.99 1.01 1.03 1.03 1.03 1.03 1.03 1.01 0.97 0.97 0.97 0.97 0.97 0.97 0.97 0.99 0.99 0.97 0.97 0.95 0.93 0.89 0.87 0.85 0.83 0.81 0.77 0.73 0.69 0.67 0.65 0.63 0.59 0.59
0.73 0.77 0.81 0.83 0.85 0.87 0.87 0.87 0.89 0.89 0.91 0.91 0.91 0.93 0.93 0.95 0.95 0.97 0.99 0.97 0.97 0.97 0.99 0.99 0.99 0.99 0.97 0.97 0.97 0.97 0.97 0.97 0.99 1.01 1.03 1.03 1.03 1.03 1.03 1.01 0.99 0.97 0.95 0.93 0.93 0.95 0.97 0.99 0.99 0.99 0.99 0.99 0.99 0.97 0.95 0.91 0.85 0.83 0.81 0.81 0.79 0.77 0.75 0.69 0.65 0.63 0.61 0.59 0.58
0.71 0.75 0.79 0.81 0.83 0.83 0.85 0.85 0.85 0.87 0.89 0.89 0.91 0.91 0.93 0.93 0.95 0.97 0.97 0.97 0.97 0.97 0.97 0.99 0.99 0.97 0.97 0.95 0.95 0.97 0.97 0.99 1.03 1.03 1.03 1.01 1.01 0.99 0.97 0.95 0.93 0.93 0.93 0.93 0.95 0.97 0.97 0.99 0.99 0.97 0.97 0.97 0.95 0.95 0.91 0.83 0.79 0.77 0.77 0.77 0.75 0.75 0.73 0.69 0.65 0.63 0.59 0.59 0.58
0.71 0.75 0.77 0.79 0.81 0.81 0.83 0.83 0.85 0.85 0.87 0.89 0.89 0.91 0.91 0.93 0.95 0.95 0.97 0.95 0.95 0.97 0.97 0.97 0.97 0.97 0.95 0.95 0.97 0.99 0.99 1.01 1.01 0.99 0.97 0.97 0.95 0.93 0.93 0.93 0.91 0.91 0.91 0.93 0.93 0.95 0.95 0.95 0.95 0.93 0.91 0.89 0.89 0.87 0.83 0.77 0.75 0.75 0.75 0.73 0.73 0.71 0.69 0.67 0.65 0.63 0.59 0.58 0.56
0.73 0.75 0.77 0.79 0.79 0.81 0.81 0.83 0.83 0.85 0.87 0.87 0.89 0.91 0.91 0.93 0.93 0.95 0.95 0.95 0.95 0.95 0.95 0.95 0.95 0.95 0.97 0.97 0.99 0.99 0.99 0.97 0.97 0.95 0.93 0.91 0.91 0.91 0.91 0.89 0.89 0.89 0.89 0.89 0.91 0.91 0.91 0.89 0.87 0.85 0.83 0.81 0.79 0.79 0.77 0.73 0.73 0.73 0.73 0.71 0.69 0.69 0.67 0.65 0.63 0.61 0.59 0.58 0.56
0.73 0.75 0.77 0.77 0.79 0.79 0.81 0.81 0.83 0.83 0.85 0.87 0.87 0.89 0.89 0.91 0.91 0.93 0.93 0.93 0.93 0.93 0.93 0.93 0.93 0.95 0.95 0.97 0.95 0.95 0.95 0.93 0.93 0.91 0.91 0.89 0.89 0.89 0.89 0.87 0.87 0.87 0.87 0.87 0.87 0.85 0.85 0.83 0.83 0.81 0.79 0.77 0.75 0.73 0.71 0.71 0.71 0.71 0.69 0.69 0.67 0.67 0.65 0.63 0.61 0.61 0.59 0.58 0.56
0.73 0.75 0.75 0.77 0.77 0.77 0.77 0.79 0.79 0.81 0.83 0.83 0.85 0.85 0.87 0.87 0.89 0.89 0.91 0.91 0.91 0.91 0.91 0.91 0.93 0.93 0.93 0.93 0.93 0.91 0.91 0.91 0.89 0.89 0.89 0.87 0.87 0.87 0.85 0.83 0.83 0.83 0.83 0.83 0.81 0.81 0.81 0.79 0.79 0.77 0.77 0.75 0.73 0.71 0.69 0.69 0.69 0.69 0.67 0.67 0.65 0.65 0.63 0.63 0.61 0.59 0.59 0.58 0.58
0.71 0.73 0.73 0.73 0.75 0.75 0.75 0.77 0.77 0.79 0.79 0.81 0.83 0.83 0.85 0.85 0.87 0.87 0.89 0.89 0.89 0.89 0.89 0.89 0.89 0.91 0.89 0.89 0.89 0.89 0.89 0.89 0.87 0.87 0.87 0.85 0.85 0.83 0.81 0.81 0.81 0.81 0.81 0.79 0.79 0.77 0.77 0.77 0.75 0.75 0.75 0.73 0.71 0.69 0.67 0.67 0.67 0.65 0.65 0.65 0.65 0.63 0.63 0.61 0.59 0.59 0.58 0.58 0.56
0.69 0.71 0.71 0.71 0.73 0.73 0.75 0.75 0.75 0.77 0.79 0.79 0.81 0.81 0.83 0.83 0.85 0.85 0.87 0.87 0.87 0.87 0.87 0.87 0.87 0.87 0.87 0.87 0.87 0.87 0.87 0.85 0.85 0.83 0.83 0.83 0.81 0.79 0.79 0.79 0.79 0.79 0.77 0.77 0.75 0.75 0.73 0.73 0.73 0.71 0.71 0.71 0.67 0.67 0.65 0.65 0.65 0.65 0.63 0.63 0.63 0.63 0.61 0.59 0.59 0.59 0.58 0.58 0.58
0.69 0.69 0.71 0.71 0.71 0.73 0.73 0.73 0.75 0.75 0.77 0.77 0.79 0.79 0.79 0.81 0.81 0.81 0.83 0.83 0.83 0.83 0.83 0.83 0.83 0.83 0.83 0.83 0.83 0.83 0.83 0.81 0.81 0.81 0.79 0.79 0.77 0.77 0.77 0.77 0.75 0.75 0.75 0.75 0.73 0.73 0.71 0.71 0.69 0.69 0.69 0.67 0.65 0.65 0.65 0.63 0.63 0.63 0.63 0.61 0.61 0.61 0.61 0.59 0.59 0.59 0.59 0.58 0.58
0.67 0.69 0.69 0.71 0.71 0.71 0.71 0.73 0.73 0.73 0.75 0.75 0.75 0.75 0.77 0.77 0.77 0.77 0.79 0.79 0.79 0.79 0.79 0.79 0.79 0.79 0.79 0.79 0.79 0.79 0.79 0.79 0.77 0.77 0.77 0.75 0.75 0.75 0.75 0.73 0.73 0.73 0.73 0.71 0.71 0.69 0.69 0.67 0.67 0.67 0.65 0.65 0.63 0.63 0.63 0.61 0.61 0.61 0.61 0.61 0.59 0.59 0.59 0.59 0.59 0.59 0.59 0.59 0.59
0.67 0.67 0.67 0.69 0.69 0.69 0.69 0.69 0.69 0.71 0.71 0.71 0.73 0.73 0.73 0.73 0.73 0.75 0.75 0.77 0.77 0.77 0.77 0.77 0.77 0.77 0.77 0.75 0.75 0.75 0.75 0.75 0.75 0.75 0.73 0.73 0.73 0.73 0.73 0.71 0.71 0.71 0.69 0.69 0.67 0.67 0.67 0.65 0.65 0.65 0.63 0.63 0.61 0.61 0.61 0.61 0.59 0.59 0.59 0.59 0.59 0.59 0.59 0.59 0.59 0.59 0.59 0.59 0.58
0.63 0.65 0.65 0.65 0.65 0.65 0.67 0.67 0.67 0.67 0.69 0.69 0.69 0.69 0.71 0.71 0.71 0.71 0.73 0.73 0.73 0.73 0.73 0.73 0.73 0.73 0.73 0.73 0.73 0.73 0.73 0.73 0.73 0.71 0.71 0.71 0.71 0.71 0.71 0.69 0.69 0.67 0.67 0.65 0.65 0.65 0.65 0.65 0.63 0.63 0.61 0.61 0.59 0.59 0.59 0.59 0.58 0.58 0.58 0.58 0.58 0.58 0.58 0.58 0.58 0.58 0.58 0.58 0.56
0.61 0.61 0.61 0.63 0.63 0.63 0.63 0.65 0.65 0.65 0.67 0.67 0.67 0.67 0.69 0.69 0.69 0.69 0.71 0.71 0.71 0.71 0.71 0.71 0.73 0.73 0.73 0.73 0.73 0.73 0.71 0.71 0.69 0.69 0.69 0.69 0.69 0.69 0.67 0.67 0.65 0.65 0.65 0.65 0.63 0.63 0.63 0.63 0.61 0.61 0.59 0.59 0.59 0.59 0.58 0.58 0.58 0.58 0.58 0.58 0.58 0.58 0.58 0.56 0.56 0.56 0.56 0.54 0.54
0.59 0.59 0.59 0.61 0.61 0.61 0.61 0.63 0.63 0.63 0.65 0.65 0.65 0.67 0.67 0.67 0.67 0.69 0.69 0.69 0.69 0.69 0.69 0.71 0.71 0.71 0.71 0.71 0.71 0.69 0.69 0.69 0.67 0.67 0.67 0.67 0.67 0.65 0.65 0.65 0.63 0.63 0.63 0.63 0.63 0.63 0.63 0.61 0.61 0.61 0.61 0.59 0.59 0.59 0.59 0.59 0.59 0.58 0.58 0.58 0.58 0.56 0.54 0.54 0.52 0.52 0.52 0.50 0.50
0.58 0.58 0.58 0.59 0.59 0.59 0.59 0.61 0.61 0.63 0.63 0.63 0.65 0.65 0.65 0.65 0.67 0.67 0.67 0.67 0.67 0.67 0.67 0.69 0.69 0.69 0.69 0.69 0.67 0.67 0.67 0.67 0.65 0.65 0.65 0.65 0.63 0.63 0.63 0.63 0.63 0.61 0.61 0.61 0.61 0.61 0.61 0.61 0.61 0.61 0.61 0.59 0.59 0.59 0.59 0.59 0.59 0.59 0.58 0.58 0.54 0.52 0.50 0.48 0.48 0.48 0.48 0.46 0.46
0.56 0.56 0.58 0.58 0.58 0.59 0.59 0.59 0.61 0.61 0.63 0.63 0.63 0.63 0.63 0.65 0.65 0.65 0.65 0.65 0.65 0.67 0.67 0.67 0.67 0.67 0.67 0.65 0.65 0.65 0.65 0.65 0.63 0.63 0.63 0.63 0.63 0.61 0.61 0.61 0.61 0.61 0.61 0.61 0.61 0.61 0.61 0.61 0.59 0.59 0.59 0.59 0.59 0.58 0.58 0.58 0.58 0.56 0.56 0.54 0.50 0.48 0.46 0.46 0.44 0.44 0.44 0.44 0.44
0.56 0.56 0.56 0.58 0.58 0.58 0.58 0.59 0.59 0.61 0.61 0.61 0.63 0.63 0.63 0.63 0.63 0.63 0.63 0.63 0.65 0.65 0.65 0.65 0.65 0.65 0.65 0.65 0.63 0.63 0.63 0.63 0.63 0.63 0.61 0.61 0.61 0.61 0.59 0.59 0.59 0.59 0.59 0.59 0.59 0.59 0.59 0.58 0.58 0.58 0.58 0.58 0.58 0.56 0.54 0.54 0.54 0.52 0.52 0.50 0.46 0.44 0.42 0.42 0.40 0.40 0.40 0.38 0.38
0.54 0.56 0.56 0.56 0.56 0.58 0.58 0.58 0.59 0.59 0.61 0.61 0.61 0.61 0.61 0.61 0.61 0.61 0.61 0.63 0.63 0.63 0.63 0.63 0.63 0.63 0.63 0.61 0.61 0.61 0.61 0.61 0.61 0.61 0.61 0.59 0.59 0.59 0.58 0.58 0.58 0.56 0.56 0.58 0.58 0.58 0.58 0.56 0.56 0.56 0.56 0.54 0.54 0.52 0.52 0.48 0.48 0.46 0.46 0.44 0.40 0.38 0.38 0.36 0.36 0.36 0.36 0.34 0.34
0.52 0.54 0.54 0.56 0.56 0.56 0.58 0.58 0.58 0.59 0.59 0.59 0.59 0.61 0.61 0.61 0.61 0.61 0.61 0.61 0.61 0.61 0.61 0.61 0.61 0.61 0.61 0.61 0.61 0.59 0.59 0.59 0.59 0.59 0.58 0.58 0.56 0.56 0.56 0.56 0.54 0.54 0.56 0.56 0.56 0.56 0.54 0.54 0.52 0.52 0.52 0.50 0.50 0.48 0.46 0.46 0.44 0.42 0.40 0.36 0.34 0.34 0.34 0.32 0.32 0.32 0.30 0.30 0.30
0.52 0.52 0.54 0.54 0.54 0.56 0.56 0.56 0.58 0.58 0.59 0.59 0.59 0.59 0.59 0.59 0.59 0.59 0.59 0.59 0.61 0.61 0.61 0.61 0.59 0.59 0.59 0.59 0.59 0.58 0.58 0.58 0.56 0.56 0.56 0.54 0.54 0.54 0.54 0.54 0.54 0.54 0.54 0.56 0.56 0.52 0.50 0.50 0.48 0.48 0.46 0.46 0.44 0.44 0.42 0.40 0.40 0.38 0.36 0.32 0.30 0.30 0.30 0.28 0.28 0.28 0.26 0.26 0.26
0.52 0.52 0.52 0.54 0.54 0.54 0.54 0.56 0.58 0.58 0.58 0.58 0.58 0.58 0.58 0.58 0.58 0.59 0.59 0.59 0.59 0.59 0.59 0.59 0.58 0.58 0.58 0.56 0.56 0.56 0.56 0.54 0.54 0.54 0.54 0.54 0.52 0.52 0.52 0.52 0.52 0.52 0.52 0.52 0.48 0.48 0.46 0.44 0.44 0.44 0.42 0.42 0.40 0.40 0.38 0.36 0.36 0.34 0.32 0.30 0.28 0.26 0.26 0.26 0.26 0.24 0.24 0.24 0.22
0.52 0.52 0.52 0.54 0.54 0.54 0.54 0.56 0.56 0.56 0.58 0.58 0.58 0.58 0.58 0.58 0.58 0.58 0.58 0.59 0.59 0.58 0.58 0.56 0.56 0.56 0.54 0.54 0.54 0.54 0.54 0.52 0.52 0.52 0.52 0.52 0.50 0.50 0.50 0.48 0.48 0.48 0.48 0.48 0.44 0.44 0.42 0.42 0.40 0.40 0.38 0.38 0.36 0.34 0.34 0.32 0.32 0.28 0.26 0.26 0.26 0.24 0.24 0.24 0.22 0.22 0.22 0.22 0.22
0.52 0.52 0.52 0.54 0.54 0.54 0.54 0.56 0.56 0.56 0.56 0.56 0.56 0.56 0.58 0.58 0.58 0.56 0.56 0.56 0.56 0.56 0.56 0.54 0.54 0.54 0.54 0.52 0.52 0.52 0.52 0.52 0.50 0.50 0.50 0.48 0.46 0.46 0.44 0.44 0.44 0.44 0.44 0.42 0.40 0.40 0.40 0.38 0.36 0.36 0.36 0.34 0.32 0.32 0.30 0.28 0.28 0.26 0.24 0.24 0.22 0.22 0.22 0.22 0.22 0.22 0.22 0.22 0.22
0.52 0.52 0.54 0.54 0.54 0.54 0.54 0.56 0.56 0.56 0.56 0.56 0.56 0.56 0.56 0.56 0.56 0.56 0.54 0.54 0.54 0.54 0.54 0.54 0.54 0.52 0.52 0.52 0.50 0.50 0.48 0.48 0.46 0.46 0.46 0.44 0.42 0.42 0.40 0.40 0.40 0.40 0.40 0.38 0.38 0.36 0.36 0.34 0.34 0.34 0.32 0.30 0.30 0.28 0.26 0.26 0.24 0.24 0.22 0.22 0.22 0.22 0.22 0.22 0.22 0.22 0.22 0.24 0.24
0.54 0.54 0.54 0.54 0.54 0.54 0.54 0.54 0.54 0.54 0.54 0.54 0.54 0.54 0.54 0.54 0.54 0.54 0.54 0.54 0.54 0.52 0.52 0.52 0.50 0.50 0.48 0.48 0.46 0.46 0.44 0.44 0.42 0.42 0.42 0.42 0.40 0.38 0.38 0.38 0.36 0.36 0.34 0.34 0.34 0.34 0.32 0.32 0.30 0.30 0.30 0.28 0.26 0.26 0.24 0.24 0.22 0.22 0.22 0.20 0.20 0.22 0.22 0.22 0.22 0.24 0.24 0.26 0.26
0.54 0.54 0.54 0.54 0.54 0.54 0.54 0.54 0.52 0.52 0.52 0.52 0.52 0.52 0.54 0.54 0.54 0.54 0.54 0.52 0.52 0.50 0.48 0.46 0.46 0.44 0.44 0.42 0.42 0.42 0.42 0.40 0.40 0.40 0.38 0.38 0.38 0.36 0.36 0.34 0.34 0.32 0.32 0.32 0.30 0.30 0.28 0.28 0.28 0.28 0.26 0.26 0.24 0.24 0.22 0.22 0.22 0.22 0.22 0.22 0.22 0.22 0.22 0.22 0.24 0.24 0.24 0.26 0.26
0.54 0.54 0.54 0.54 0.54 0.54 0.54 0.52 0.52 0.52 0.52 0.52 0.52 0.52 0.52 0.52 0.50 0.50 0.50 0.48 0.46 0.44 0.44 0.42 0.42 0.40 0.40 0.40 0.40 0.40 0.38 0.38 0.38 0.38 0.36 0.36 0.36 0.34 0.34 0.32 0.28 0.28 0.28 0.28 0.26 0.26 0.26 0.26 0.26 0.26 0.26 0.24 0.24 0.22 0.22 0.22 0.22 0.22 0.22 0.22 0.22 0.22 0.22 0.24 0.24 0.24 0.26 0.26 0.28
0.54 0.54 0.54 0.54 0.54 0.52 0.52 0.52 0.52 0.50 0.50 0.50 0.50 0.50 0.48 0.48 0.46 0.46 0.46 0.44 0.44 0.42 0.42 0.40 0.40 0.40 0.38 0.38 0.38 0.38 0.36 0.36 0.36 0.36 0.36 0.34 0.34 0.34 0.32 0.28 0.26 0.24 0.24 0.24 0.24 0.24 0.24 0.24 0.24 0.24 0.24 0.24 0.24 0.24 0.24 0.24 0.24 0.22 0.22 0.22 0.22 0.22 0.24 0.24 0.24 0.26 0.26 0.28 0.28
0.54 0.54 0.54 0.54 0.52 0.52 0.52 0.50 0.50 0.50 0.48 0.48 0.46 0.46 0.46 0.44 0.44 0.44 0.42 0.42 0.42 0.40 0.40 0.38 0.38 0.38 0.38 0.38 0.36 0.36 0.36 0.36 0.34 0.34 0.34 0.32 0.32 0.30 0.28 0.24 0.22 0.22 0.22 0.24 0.24 0.24 0.24 0.24 0.24 0.26 0.26 0.26 0.26 0.26 0.26 0.26 0.24 0.24 0.22 0.22 0.22 0.24 0.24 0.26 0.26 0.28 0.28 0.30 0.30
0.54 0.54 0.52 0.52 0.52 0.50 0.50 0.48 0.48 0.46 0.46 0.46 0.44 0.44 0.44 0.42 0.42 0.42 0.40 0.40 0.40 0.38 0.38 0.38 0.38 0.38 0.36 0.36 0.36 0.34 0.34 0.32 0.32 0.32 0.30 0.30 0.28 0.26 0.24 0.22 0.22 0.22 0.22 0.22 0.24 0.24 0.24 0.26 0.26 0.26 0.28 0.28 0.28 0.26 0.26 0.26 0.24 0.22 0.22 0.22 0.24 0.24 0.24 0.26 0.28 0.28 0.28 0.28 0.28
Wind_Speed
23 23 24 24 24 24 24 24 23 23 23 24 24 24 24 24 24 24 25 25 25 25 26 26 26 26 26 26 26 26 27 27 27 27 28 28 29 29 30 30 30 30 30 30 31 31 30 31 31 31 31 31 31 31 31 31 31 31 32 32 32 32 32 32 32 33 33 33 34
23 23 23 23 23 23 23 23 23 23 23 23 24 24 24 24 24 25 25 25 25 25 26 26 26 26 26 26 26 26 27 27 27 28 28 29 30 30 30 30 31 31 31 31 31 31 31 31 31 31 31 31 31 31 32 32 32 32 32 32 32 32 32 33 33 33 34 34 34
22 22 22 22 22 22 22 22 23 23 23 23 23 24 24 24 24 25 25 25 25 25 25 26 26 26 26 26 26 27 27 27 28 28 29 30 30 30 31 31 31 31 31 31 31 31 31 31 32 32 32 32 32 32 32 32 32 32 32 33 33 33 33 33 34 34 34 34 35
21 21 21 21 21 22 22 22 22 22 23 23 23 23 23 24 24 24 25 25 25 25 25 26 26 26 26 26 27 27 28 28 28 29 29 30 30 31 31 31 31 32 32 32 32 32 32 32 32 32 32 32 32 32 32 32 32 32 33 33 33 33 34 34 34 34 34 35 35
20 20 20 21 21 21 22 22 22 22 22 22 23 23 23 23 24 24 24 24 24 25 25 26 26 26 26 27 27 28 28 29 29 30 30 30 30 31 31 31 31 32 32 32 32 33 33 33 33 33 33 33 33 33 33 33 33 33 33 33 34 34 34 34 34 34 35 35 35
19 20 20 20 20 21 21 21 21 22 22 22 22 22 23 23 23 23 24 24 24 25 25 25 26 26 27 27 28 28 29 29 30 30 30 30 31 31 31 31 31 32 32 33 33 33 33 33 33 33 34 34 33 33 33 33 33 33 34 34 34 34 34 35 35 35 35 35 36
18 19 19 20 20 20 20 21 21 21 21 22 22 22 23 23 23 24 24 24 24 24 25 25 26 26 27 27 28 29 29 30 30 31 31 31 31 31 31 31 32 32 32 33 33 33 33 33 33 34 34 34 34 34 34 33 33 34 34 34 34 35 35 35 35 35 35 36 36
18 18 19 19 19 20 20 20 21 21 21 21 22 22 23 23 23 24 24 24 24 24 25 25 26 26 27 28 28 29 29 30 30 31 31 31 31 31 31 32 32 32 33 33 32 33 33 33 33 34 34 34 34 34 34 34 34 34 34 35 35 35 35 35 35 36 36 36 37
17 18 18 18 19 19 20 20 20 21 21 21 22 22 23 23 23 24 24 24 24 24 25 25 26 27 27 28 28 29 29 30 30 30 30 30 30 31 31 32 32 32 32 32 32 32 32 33 33 33 34 34 34 34 34 34 35 35 35 35 35 35 35 36 36 36 36 37 37
17 17 18 18 18 19 19 20 20 21 21 21 22 22 23 23 23 23 23 24 24 24 25 25 26 27 27 28 28 29 29 29 30 30 30 30 30 31 31 32 32 32 32 32 32 32 32 32 32 33 33 33 33 34 34 35 35 36 36 36 35 36 36 36 36 36 37 37 38
16 16 17 17 18 18 19 19 20 20 21 21 21 22 22 22 23 23 23 24 24 24 25 25 26 26 27 27 28 28 28 29 29 29 29 29 30 30 31 31 31 31 31 31 31 31 32 32 32 32 32 33 33 33 34 35 35 36 36 35 35 35 36 36 36 37 37 37 38
15 16 16 17 17 17 18 18 19 19 20 20 21 21 21 22 22 22 23 23 23 24 24 25 25 25 26 26 27 27 27 27 28 28 28 28 29 29 29 29 30 30 30 30 30 31 31 31 31 31 32 32 32 33 33 34 35 35 35 35 35 35 36 36 36 37 37 38 38
14 15 15 16 16 17 17 18 18 19 19 20 20 21 21 21 22 22 22 23 23 23 24 24 24 25 25 26 26 26 26 26 26 26 27 27 27 28 28 28 29 29 30 30 30 30 30 30 31 31 31 32 32 33 33 34 34 35 35 35 35 35 36 36 37 37 37 38 38
13 14 14 15 15 16 16 17 18 18 19 19 20 20 21 21 21 22 22 22 23 23 23 23 24 24 25 25 25 25 25 25 25 26 26 26 27 27 28 28 29 29 29 30 30 30 31 31 31 31 32 32 32 33 33 34 34 34 35 35 35 36 36 36 37 37 37 38 38
13 13 14 14 15 15 16 16 17 18 18 19 19 20 20 21 21 21 22 22 22 23 23 23 23 24 24 24 24 24 24 24 25 25 26 26 26 27 27 28 28 29 29 30 30 30 31 31 31 31 32 32 32 32 32 33 33 34 34 35 35 35 36 36 37 37 37 38 39
12 13 13 14 14 15 15 16 17 17 18 19 19 19 20 20 21 21 21 22 22 22 22 22 23 23 23 23 24 24 24 24 25 25 25 26 26 27 27 28 28 28 29 29 29 30 30 30 31 31 31 31 31 32 32 32 33 33 34 34 35 35 36 36 36 37 37 38 39
12 12 13 13 14 14 15 16 16 17 17 18 18 19 19 20 20 20 21 21 21 21 22 22 22 22 23 23 23 24 24 24 25 25 26 26 26 27 27 27 28 28 28 29 29 29 29 30 30 30 30 31 31 31 31 32 32 33 33 34 34 35 35 36 36 37 37 38 39
12 12 13 13 14 14 14 15 15 16 16 17 18 18 18 19 19 20 20 20 21 21 21 22 22 22 23 23 24 24 24 25 25 25 26 26 26 26 27 27 28 28 28 28 28 29 29 29 29 30 30 30 30 31 31 31 32 32 33 33 34 34 35 36 36 37 38 38 39
12 12 12 13 13 14 14 15 15 16 16 17 17 18 18 19 19 19 20 20 21 21 21 22 22 23 23 23 24 24 25 25 25 25 26 26 26 26 27 27 27 27 28 28 28 28 29 29 29 29 29 30 30 30 31 31 32 32 33 33 34 34 35 36 36 37 38 38 39
11 12 12 13 13 14 14 15 15 16 16 17 17 18 18 19 19 20 20 21 21 21 21 22 22 23 23 24 24 24 25 25 25 25 25 25 26 26 26 27 27 27 27 27 28 28 28 28 29 29 29 29 30 30 31 31 32 32 33 33 34 34 35 36 36 37 38 39 40
12 12 13 13 14 14 14 15 15 16 16 17 18 18 19 19 20 20 20 21 21 21 22 22 22 23 23 23 24 24 24 24 24 24 25 25 25 26 26 26 26 27 27 27 27 27 28 28 28 29 29 29 30 30 31 31 32 32 33 33 34 35 35 36 37 38 38 39 40
12 13 13 14 14 14 15 15 16 16 17 17 18 18 19 19 20 20 20 21 21 21 21 22 22 22 23 23 23 23 23 23 24 24 24 24 25 25 25 26 26 26 26 26 27 27 27 28 28 28 29 29 30 30 31 31 32 32 33 34 34 35 36 36 37 38 39 40 40
13 13 13 14 14 15 15 15 16 16 17 17 18 18 19 19 20 20 20 20 21 21 21 21 22 22 22 22 22 22 22 23 23 23 24 24 24 24 25 25 25 25 26 26 26 27 27 27 28 28 29 29 30 30 31 31 32 33 33 34 35 36 36 37 38 38 39 40 41
13 13 14 14 14 15 15 16 16 17 17 17 18 18 19 19 19 20 20 20 20 20 21 21 21 21 21 21 22 22 22 22 22 23 23 23 24 24 24 25 25 25 25 26 26 27 27 27 28 28 29 29 30 30 31 32 32 33 34 35 35 36 37 38 38 39 40 41 41
13 13 14 14 15 15 15 16 16 16 17 17 18 18 18 19 19 19 19 20 20 20 20 21 21 21 21 21 21 21 21 22 22 22 23 23 23 24 24 24 25 25 25 26 26 27 27 28 28 28 29 29 30 31 31 32 33 33 34 35 36 37 38 39 39 40 40 41 42
13 13 14 14 15 15 15 16 16 16 17 17 18 18 18 19 19 19 19 19 20 20 20 20 20 20 20 20 21 21 21 21 22 22 22 23 23 23 24 24 24 25 25 26 27 27 28 28 29 29 29 30 30 31 32 33 33 34 35 36 37 38 39 39 40 41 41 42 42
13 13 14 14 14 15 15 16 16 16 17 17 17 18 18 18 19 19 19 19 19 19 19 19 20 20 20 20 20 21 21 21 22 22 22 22 23 23 24 24 24 25 26 26 27 27 28 28 29 30 30 30 31 32 33 33 34 35 36 37 37 38 39 40 41 41 42 43 43
13 13 14 14 14 15 15 16 16 16 17 17 17 18 18 18 18 18 18 19 19 19 19 19 19 19 20 20 20 20 21 21 21 22 22 22 23 23 24 24 25 25 26 26 27 28 28 29 30 30 31 31 32 32 33 34 35 36 36 37 38 39 39 40 41 42 43 43 44
13 13 14 14 15 15 15 16 16 16 17 17 17 17 18 18 18 18 18 18 18 18 18 19 19 19 19 20 20 20 21 21 21 22 22 22 23 23 24 24 25 26 26 27 28 28 29 30 30 31 32 32 33 33 34 35 35 36 37 38 38 39 40 41 41 42 43 44 44
13 14 14 14 15 15 15 16 16 16 16 17 17 17 17 17 17 18 18 18 18 18 18 19 19 19 19 20 20 20 21 21 21 22 22 22 23 24 24 25 25 26 27 28 28 29 30 30 31 32 33 33 34 34 35 35 36 37 37 38 39 39 40 41 42 43 43 44 45
13 14 14 14 15 15 15 16 16 16 16 16 16 17 17 17 17 17 17 17 18 18 18 19 19 19 19 20 20 20 21 21 21 22 22 23 23 24 25 25 26 27 28 28 29 30 30 31 32 33 33 34 34 34 35 36 36 37 38 38 39 40 41 41 42 43 44 44 45
13 14 14 14 15 15 15 16 16 16 16 16 16 16 16 17 17 17 17 17 18 18 18 18 19 19 19 20 20 20 21 21 22 22 23 23 24 25 25 26 27 28 28 29 30 30 31 32 32 33 34 34 34 35 35 36 37 37 38 39 40 40 41 42 43 43 44 45 45
13 14 14 14 15 15 15 15 16 16 16 16 16 16 16 16 17 17 17 17 18 18 18 18 19 19 19 20 20 21 21 22 22 23 23 24 25 25 26 27 27 28 29 30 30 31 32 32 33 34 34 35 35 35 36 36 37 38 39 39 40 41 42 43 43 44 45 45 46
13 14 14 14 15 15 15 15 15 15 15 16 16 16 16 16 17 17 17 17 18 18 18 18 19 19 20 20 21 21 22 22 23 23 24 25 25 26 27 27 28 29 30 30 31 31 32 33 33 34 34 35 35 36 36 37 38 39 39 40 41 42 43 43 44 44 45 45 46
13 14 14 14 14 15 15 15 15 15 15 15 16 16 16 16 17 17 17 17 18 18 18 19 19 20 20 21 21 22 22 23 24 24 25 25 26 27 27 28 29 30 30 31 31 32 33 33 34 34 35 35 36 36 37 38 39 40 40 41 42 43 43 44 44 45 45 45 46
13 13 14 14 14 15 15 15 15 15 15 15 16 16 16 16 17 17 18 18 18 18 19 19 20 20 21 21 22 22 23 24 24 25 25 26 27 27 28 29 29 30 31 31 32 32 33 34 34 35 36 36 36 37 38 39 40 40 41 42 43 43 44 44 45 45 45 45 46
13 13 14 14 14 14 15 15 15 15 15 16 16 16 16 17 17 18 18 19 19 19 20 20 21 21 22 22 23 23 24 24 25 25 26 27 27 28 28 29 30 31 31 32 32 33 34 34 35 36 36 37 37 38 39 40 40 41 42 42 43 43 44 44 45 45 45 45 46
13 14 14 14 14 14 14 15 15 15 15 16 16 17 17 18 18 19 19 20 20 20 20 21 21 22 22 23 23 24 24 25 25 26 27 27 28 28 29 29 30 31 32 32 33 34 34 35 36 36 37 37 38 39 39 40 41 41 42 43 43 43 44 44 44 45 45 45 46
14 14 14 14 14 14 15 15 15 16 16 16 17 17 18 18 19 19 20 20 21 21 21 22 22 23 23 23 24 24 25 26 26 26 27 28 28 29 29 30 30 31 32 33 33 34 35 36 36 37 38 38 38 39 40 41 41 42 42 43 43 43 44 44 44 44 45 45 46
14 14 14 14 14 15 15 15 16 16 17 17 18 18 19 19 20 20 21 21 21 22 22 22 23 23 24 24 24 25 25 26 26 27 27 28 28 29 29 30 31 32 33 33 34 35 36 36 37 38 38 38 39 39 40 41 41 42 42 43 43 43 44 44 44 44 45 45 46
14 14 14 15 15 15 16 16 17 17 18 18 18 19 19 20 20 21 21 22 22 22 22 23 23 24 24 25 25 25 26 26 27 27 28 28 29 29 30 30 31 32 33 34 35 35 36 37 38 38 39 39 39 40 40 41 42 42 43 43 43 43 44 44 44 44 44 45 45
Wind_Direction
259 258 257 258 258 259 261 262 263 263 264 264 264 264 264 264 265 265 266 267 268 269 271 272 273 275 275 275 275 276 276 276 276 276 275 275 276 276 277 277 278 279 280 280 281 282 282 282 282 283 283 284 284 285 285 285 284 284 284 284 284 284 284 285 285 286 286 287 288
259 258 258 258 259 260 261 262 263 263 264 264 264 264 264 265 265 266 266 267 269 270 271 273 274 275 276 276 276 277 277 277 277 276 276 276 276 276 277 278 279 279 280 281 281 282 282 282 283 283 283 284 285 285 285 285 284 284 283 283 284 284 284 284 285 286 286 287 288
259 258 258 258 258 260 261 262 263 263 264 264 265 265 265 265 266 266 267 268 270 271 272 273 275 275 276 277 277 277 278 278 277 277 276 276 276 277 278 278 279 279 280 281 281 282 282 282 282 283 283 284 284 285 284 284 284 283 283 283 284 284 284 285 285 286 287 288 289
259 258 258 258 258 259 260 261 262 263 264 265 265 266 266 266 267 268 268 269 270 271 272 273 275 275 276 277 278 278 278 277 277 277 276 277 277 277 278 278 279 279 280 281 281 281 282 282 283 283 283 284 284 284 284 284 284 284 284 284 284 284 285 286 286 287 288 288 289
259 258 258 258 258 259 261 262 263 264 265 266 266 266 267 267 268 269 269 270 271 272 273 274 275 275 276 277 277 277 277 277 277 277 277 278 278 278 279 279 280 280 281 281 281 281 282 282 283 283 284 285 285 285 285 284 284 284 285 285 285 285 286 286 287 288 288 289 289
260 259 258 259 259 260 261 263 263 264 265 266 266 266 267 268 268 269 269 270 271 272 273 273 274 275 276 276 277 277 277 278 278 278 278 279 279 280 280 281 281 282 282 282 282 282 282 283 284 284 285 285 285 285 285 285 285 285 285 285 285 286 286 287 288 288 288 289 289
260 259 259 259 259 260 262 263 264 265 266 266 266 266 267 268 269 269 269 270 271 272 273 273 274 275 275 276 276 277 278 278 279 279 280 280 281 281 282 282 282 282 282 282 283 283 283 284 285 285 286 285 285 285 284 284 284 284 284 285 285 286 287 287 288 288 288 288 289
261 260 260 260 260 261 262 263 264 265 266 266 267 267 268 268 269 269 270 271 271 272 273 273 274 275 275 276 277 278 279 279 280 280 281 281 282 283 283 283 283 283 283 283 284 284 285 285 286 286 286 286 285 285 285 284 284 284 284 284 285 286 287 287 288 288 288 288 289
263 262 262 262 262 263 263 264 265 266 267 268 268 269 269 270 270 271 272 272 273 273 274 274 275 275 276 277 278 279 279 280 281 281 282 282 282 282 283 283 283 283 284 284 284 284 284 285 285 286 286 286 286 285 285 285 284 284 284 284 285 286 287 287 288 288 288 288 288
264 264 264 264 264 265 266 266 267 268 268 269 270 271 271 272 272 273 274 274 275 275 275 275 276 277 277 278 279 280 280 281 281 281 282 282 282 282 283 284 284 285 285 286 286 285 285 285 285 285 285 285 285 285 285 284 284 284 284 285 285 286 286 287 287 288 288 288 288
267 267 267 267 268 268 268 269 269 270 270 271 272 273 274 274 275 275 276 277 277 277 277 277 277 278 278 279 280 280 281 281 281 281 281 282 283 283 284 285 286 287 287 287 287 287 287 286 286 285 285 284 284 284 283 283 283 284 284 285 285 285 286 287 287 288 288 288 289
272 272 272 272 272 272 271 271 272 272 273 273 274 275 276 277 277 278 279 279 279 279 279 280 280 280 280 281 281 281 281 281 281 282 282 283 284 285 286 287 287 287 287 287 287 287 287 286 286 285 284 284 283 283 283 284 284 285 285 286 286 286 286 286 287 288 289 289 289
277 276 276 276 276 275 274 274 275 275 276 276 277 278 279 280 280 281 281 281 281 282 282 282 282 282 282 283 283 282 282 282 283 284 285 285 286 287 287 287 287 286 286 286 286 286 286 285 285 284 284 284 284 284 285 285 286 286 287 287 286 286 287 287 288 289 289 290 290
282 281 280 280 279 279 278 278 279 279 279 280 280 281 282 282 283 283 283 283 283 284 284 285 285 284 284 284 284 284 285 285 286 286 286 287 287 287 286 286 286 286 286 286 286 286 286 287 287 287 286 286 287 287 288 288 288 288 288 288 288 288 288 289 289 290 290 290 291
286 285 285 284 283 283 282 282 282 282 282 283 283 284 285 285 285 285 285 285 285 285 286 286 286 286 286 286 286 287 288 288 288 288 287 287 287 287 286 286 287 287 287 287 288 288 289 290 290 290 290 290 290 290 290 290 290 290 290 289 289 290 290 290 291 291 291 291 291
289 288 288 287 287 286 286 286 286 286 286 286 287 287 287 287 287 287 287 287 287 287 288 287 288 288 288 289 289 290 290 289 289 288 288 288 288 288 288 288 288 289 289 290 291 292 292 293 293 292 292 292 292 291 291 291 291 291 291 291 291 292 292 292 292 292 292 292 292
291 290 290 289 289 289 289 289 289 290 290 290 290 290 290 290 290 289 289 289 289 289 289 290 290 291 291 291 291 291 291 290 290 290 289 289 290 290 290 290 291 292 293 293 294 294 294 294 294 294 293 293 293 293 293 293 293 293 293 293 293 293 293 293 293 293 293 293 293
292 292 292 292 292 292 292 293 293 293 293 293 293 293 293 293 292 292 292 292 292 292 292 292 293 293 293 292 292 292 292 292 291 291 291 292 292 292 293 293 294 294 295 295 295 295 295 295 295 295 295 295 294 294 294 294 294 294 294 294 294 294 294 294 294 294 294 294 294
294 294 294 295 295 295 296 296 296 296 296 296 296 295 295 295 295 295 295 295 294 294 294 294 294 294 294 293 293 293 293 293 293 293 293 294 294 294 295 295 296 296 296 296 296 296 296 296 296 296 296 296 296 296 296 295 295 295 295 295 295 295 295 295 295 295 295 295 295
296 297 297 297 298 298 298 298 298 298 297 297 297 297 297 297 296 296 296 296 296 295 295 295 294 294 294 294 294 294 294 294 294 294 295 295 296 296 296 296 297 297 297 297 297 297 297 297 297 297 297 297 297 296 296 296 296 296 296 296 296 296 296 296 296 296 296 296 296
299 299 300 300 300 300 300 299 299 299 298 298 297 297 297 297 297 297 297 296 296 296 295 295 295 294 294 294 295 295 295 295 296 296 296 296 297 297 297 297 297 297 297 297 297 298 298 298 298 298 298 297 297 297 297 297 297 297 297 297 297 297 297 297 297 297 297 297 297
301 302 302 302 302 301 301 301 300 300 299 298 298 298 297 298 297 297 297 296 296 296 296 295 295 295 295 295 295 296 296 296 297 297 297 297 297 298 298 298 298 298 298 298 298 298 298 298 298 298 298 298 298 298 298 298 298 298 298 298 298 298 298 298 297 297 297 298 298
304 304 304 304 304 304 303 302 302 301 300 299 299 298 298 298 297 297 297 297 297 297 297 296 296 296 296 296 297 297 297 298 298 298 298 298 298 298 298 298 298 298 298 298 299 299 299 299 299 299 299 299 299 299 299 299 299 299 299 299 299 298 298 298 298 298 298 298 298
306 306 306 306 306 306 305 304 303 302 301 300 299 299 299 298 298 298 298 299 299 298 298 298 298 298 298 298 298 298 298 299 299 299 299 299 299 299 299 299 299 299 299 299 299 299 299 299 299 299 300 300 300 300 300 300 300 300 300 300 300 300 299 299 299 299 299 299 299
309 309 309 309 308 308 307 306 305 304 303 302 301 301 301 300 300 300 300 301 301 300 300 300 299 299 299 299 300 300 300 300 300 300 300 300 300 300 300 300 300 300 300 300 300 300 300 300 300 300 300 300 300 301 301 301 301 301 300 300 301 301 301 300 300 300 300 300 299
312 312 312 311 311 310 309 308 307 306 305 304 304 304 303 303 303 303 303 303 303 302 302 302 301 301 301 301 301 301 301 301 300 300 300 300 301 301 301 301 301 301 301 301 301 301 301 302 302 302 302 301 302 302 302 302 302 302 301 301 301 301 301 301 301 301 300 300 300
315 315 314 314 314 313 312 310 309 309 308 307 307 307 307 306 306 306 306 305 305 304 304 303 303 303 303 302 303 302 302 301 301 301 301 301 301 301 301 301 301 301 301 302 302 303 303 304 304 304 304 303 303 303 303 303 303 302 302 302 302 302 302 302 302 301 301 301 301
318 317 317 317 316 316 314 314 313 313 312 311 311 310 309 309 309 309 308 307 306 306 305 305 304 304 304 304 304 303 303 303 302 302 302 302 302 302 302 302 302 302 302 303 304 305 305 305 305 306 305 305 304 304 304 304 304 303 303 303 303 303 303 302 302 302 302 302 302
320 320 320 320 319 318 318 317 316 315 314 313 313 312 312 312 311 310 309 309 308 307 307 306 305 305 305 305 304 304 304 304 303 303 303 303 303 303 303 303 303 303 304 305 306 306 306 306 307 307 306 306 306 305 305 305 304 304 304 304 304 304 304 303 303 303 303 303 303
322 323 323 322 322 321 320 319 318 317 316 315 315 314 314 314 313 312 311 310 309 308 307 307 307 306 306 306 305 305 305 304 304 303 304 304 304 304 304 304 304 305 306 307 307 307 307 307 307 307 307 307 307 306 306 306 305 305 305 305 305 305 305 304 304 304 304 304 304
324 324 324 324 324 323 322 320 319 318 318 317 317 317 316 315 314 313 312 311 310 309 308 308 308 307 307 306 306 305 305 305 304 304 305 305 305 305 305 306 306 306 307 308 308 308 308 308 308 308 308 308 308 307 307 307 306 306 306 306 306 306 306 306 306 306 306 306 306
325 325 326 326 325 324 323 322 321 320 320 320 319 318 317 316 315 313 312 311 310 310 310 309 309 308 307 307 306 306 306 306 306 306 306 306 306 307 307 307 307 308 308 309 309 309 309 309 309 309 309 309 309 308 308 307 307 307 307 307 307 307 307 307 307 307 307 307 307
327 327 327 327 326 325 324 323 323 322 322 321 320 319 318 317 316 315 314 313 313 312 312 311 310 309 309 308 307 307 307 307 307 308 308 308 308 308 308 308 308 309 310 310 310 310 310 310 310 310 310 310 309 309 309 308 308 308 308 309 309 309 309 308 308 308 308 308 308
328 328 328 328 327 326 325 324 323 323 322 322 321 321 320 319 318 317 316 316 315 314 313 312 311 310 309 309 309 309 309 309 309 309 309 309 309 309 310 310 309 310 311 311 311 311 311 311 311 311 311 311 310 310 310 310 310 310 310 310 310 310 310 310 309 309 309 309 309
328 329 329 328 327 326 325 325 324 324 324 324 323 322 321 321 320 319 318 317 316 315 314 313 312 311 311 310 310 310 310 310 310 310 310 310 310 310 311 311 310 311 312 312 312 312 312 312 312 312 312 312 311 311 311 311 311 311 311 311 311 311 311 311 310 310 310 309 309
328 328 328 328 327 326 326 325 325 325 325 325 324 323 322 321 321 320 319 318 317 316 315 314 313 313 313 312 312 312 311 311 311 311 311 311 311 311 311 311 311 312 313 313 313 313 313 313 313 313 313 312 312 312 312 312 312 312 312 312 312 312 311 311 311 311 310 310 310
327 327 328 327 327 326 326 326 326 326 326 325 324 323 322 321 321 320 319 318 318 317 316 315 315 315 314 314 313 313 312 312 312 312 312 312 312 312 312 312 312 312 313 313 314 314 314 314 314 314 314 313 313 313 313 313 313 313 313 313 313 312 312 312 312 311 311 311 311
326 326 327 327 327 326 326 326 326 326 325 324 323 322 321 321 320 320 319 319 318 318 317 317 316 316 315 315 314 314 313 313 313 313 313 313 312 312 312 313 312 313 313 314 315 315 315 315 315 315 315 314 314 314 314 314 314 314 314 314 313 313 313 313 313 312 312 312 311
325 325 326 326 326 325 325 325 325 324 323 322 322 321 321 320 320 320 319 319 319 318 318 318 317 317 316 315 315 314 314 314 313 313 313 313 313 313 313 313 313 313 314 315 316 316 316 316 316 316 316 315 315 315 315 315 315 315 315 314 314 314 314 314 314 313 313 312 312
324 324 324 324 324 324 324 324 323 322 321 321 321 321 321 321 320 320 320 320 320 319 319 318 317 317 316 316 315 315 314 314 314 314 314 313 314 314 314 314 314 314 315 316 316 317 317 317 317 317 317 316 316 316 316 316 316 316 316 315 315 315 315 315 314 314 314 313 313
322 323 323 323 322 322 322 322 322 321 321 321 321 321 321 320 321 321 321 320 320 320 319 318 317 317 316 316 315 315 315 315 314 314 314 314 314 315 315 315 315 315 316 316 317 318 318 318 318 318 318 317 317 317 317 317 317 317 317 316 316 316 316 315 315 314 314 314 313